Location: Kaltenbach
(49.2000°N, 7.7500°E)
Time: 15:59:04
(UTC+00:00)

Cosmos 2341 Rocket - Pass Details

Date: 24 January 2020
Orbit: 967 x 1005 km, 82.9° (Epoch: 19 February)

Event Time Altitude Azimuth Distance (km) Brightness Sun altitude
Rises 17:29:20 0° 185° (S) 3,717 7.3 -12.6°
Reaches altitude 10° 17:31:51 10° 185° (S) 2,768 6.6 -13.0°
Maximum altitude 17:38:13 87° 100° (E) 1,007 4.0 -14.0°
Drops below altitude 10° 17:44:36 10° 10° (N) 2,765 6.2 -15.0°
Sets 17:47:07 0° 10° (N) 3,713 6.8 -15.4°
